Location: Oberwangen
(47.4286°N, 8.9679°E)
Time: 10:19:37
(UTC+00:00)

Cosmos 1816 Rocket - Pass Details

Date: 21 October 2021
Orbit: 952 x 998 km, 82.9° (Epoch: 08 December)

Event Time Altitude Azimuth Distance (km) Brightness Sun altitude
Rises 20:34:20 0° 344° (NNW) 3,646 8.1 -41.3°
Reaches altitude 10° 20:36:59 10° 337° (NNW) 2,700 7.3 -41.6°
Enters shadow 20:39:58 26° 317° (NW) 1,800 6.3 -42.0°
